Regional Weather Roundup
Issued by NWS

Home | Current Version | Previous Version | Text Only | Print | Product List | Glossary On
Versions: 1 2 3 4 5 6 7 8 9 10 11 12 13 14 15 16 17 18 19 20 21 22 23 24 25 26 27 28 29 30 31 32 33 34 35 36 37 38 39 40 41 42 43 44 45 46 47 48 49 50
000
ASUS45 KSLC 011010
RWRUT

UTAH REGIONAL WEATHER ROUNDUP
NATIONAL WEATHER SERVICE SALT LAKE CITY UT
300 AM MST SUN FEB 01 2015

UTZ001>011-023>025-011100-

NORTHERN UTAH

CITY           SKY/WX    TMP DP  RH WIND       PRES   REMARKS
BRIGHAM CITY   CLEAR     29  26  88 CALM      30.20S
HILL AFB       CLEAR     30  22  71 E9        30.17S WCI  22
LOGAN          CLEAR     25  22  88 E3        30.20R
OGDEN          CLEAR     28  23  81 S6        30.18R WCI  22
PROVO AIRPORT  CLEAR     27  25  93 SE5       30.19S WCI  21
SALT LAKE CITY CLEAR     29  26  89 CALM      30.19S
VERNAL         CLEAR     27  21  78 SE6       30.08R WCI  20
WENDOVER       PTCLDY    28  21  74 CALM      30.19S
HEBER CITY     CLEAR     21  19  93 CALM      30.17S
WEST JORDAN    CLEAR     28  23  80 CALM      30.19S

$$

UTZ012>022-026-027-011100-

SOUTHERN/CENTRAL UTAH

CITY           SKY/WX    TMP DP  RH WIND       PRES   REMARKS
BLANDING       CLEAR     30  30 100 CALM      30.11F
BRYCE CANYON   CLEAR     21  19  92 NW5       30.14R WCI  15
CEDAR CITY     CLEAR     27  23  85 CALM      30.14F
DELTA          CLEAR     27  26  99 N5        30.20R WCI  21
HANKSVILLE     PTCLDY    32  32 100 CALM      30.11S
MILFORD        CLEAR     28  24  85 SW3       30.17R
MOAB/CYNLANDS  PTCLDY    32  32 100 CALM      30.07S
PRICE          PTCLDY    37  14  38 NW13      30.09R WCI  29
ST GEORGE      SUNNY     43  30  61 NW7       30.12S
KANAB          CLEAR     28  28 100 NE3       30.15R

$$

REGIONAL REPORTS     COLORADO/ARIZONA

CITY           SKY/WX    TMP DP  RH WIND       PRES   REMARKS
CRAIG, CO      CLEAR     20  15  81 SW5       30.10R WCI  13
GRAND JUNCTION PTCLDY    31  30  96 S3        30.09R
RIFLE          CLEAR     25  22  88 SE5       30.10R WCI  19
MONTROSE       PTCLDY    30  27  88 SE6       30.11R WCI  24
CORTEZ         CLEAR     33  29  85 NW6       30.03R WCI  28
PAGE, AZ       NOT AVBL
GRAND CANYON   CLEAR     23  21  92 CALM      30.11R
KINGMAN        CLEAR     40  36  86 E6        30.07R
FLAGSTAFF      CLEAR     33  28  81 VRB3      30.07R

$$

REGIONAL REPORTS    NEVADA/IDAHO/WYOMING

CITY           SKY/WX    TMP DP  RH WIND       PRES   REMARKS
LAS VEGAS, NV  CLEAR     47  40  76 SW9       30.04S
ELY            CLEAR     20  17  88 S8        30.21R WCI  10
ELKO           CLEAR     25  21  85 CALM      30.23R
POCATELLO, ID  CLOUDY    29  27  92 N5        30.20S WCI  24
BURLEY         CLEAR     24  22  91 CALM      30.18S FOG
EVANSTON, WY   PTCLDY    22  18  85 SW8       30.12S WCI  12
ROCK SPRINGS   CLEAR     21  13  71 W13       30.08R WCI   9

$$



USA.gov is the U.S. government's official web portal to all federal, state and local government web resources and services.